| time (UTC) | temp F | wind direction | speed knots | gust knots | rain 1hr in | rain 24hr in | rain mn in | humidity % | barometer mb |
| 20260902043048 | 62 | 236 | 0.9 | 4.3 | 0.00 | 0.00 | 0.00 | 75 | 1017.6 |
| 20260902041545 | 62 | 250 | 1.7 | 6.1 | 0.00 | 0.00 | 0.00 | 75 | 1017.3 |
| 20260902040044 | 62 | 192 | 1.7 | 7.8 | 0.00 | 0.00 | 0.00 | 75 | 1017.2 |
| 20260902034545 | 62 | 211 | 2.6 | 9.6 | 0.00 | 0.00 | 0.00 | 75 | 1017.0 |
| 20260902033102 | 62 | 197 | 1.7 | 8.7 | 0.00 | 0.00 | 0.00 | 74 | 1017.0 |
| 20260902031545 | 63 | 261 | 4.3 | 14.8 | 0.00 | 0.00 | 0.00 | 74 | 1017.0 |
| 20260902030059 | 63 | 228 | 3.5 | 9.6 | 0.00 | 0.00 | 0.00 | 73 | 1016.9 |
| 20260902024503 | 63 | 230 | 6.1 | 12.2 | 0.00 | 0.00 | 0.00 | 73 | 1017.0 |
| 20260902023012 | 63 | 360 | 5.2 | 12.2 | 0.00 | 0.00 | 0.00 | 72 | 1016.7 |
| 20260902021524 | 63 | 360 | 7.0 | 13.9 | 0.00 | 0.00 | 0.00 | 70 | 1016.6 |
| 20260902020024 | 64 | 286 | 2.6 | 16.5 | 0.00 | 0.00 | 0.00 | 66 | 1016.4 |
| 20260902014533 | 65 | 289 | 7.0 | 12.2 | 0.00 | 0.00 | 0.00 | 62 | 1016.5 |
| 20260902013027 | 66 | 255 | 5.2 | 13.9 | 0.00 | 0.00 | 0.00 | 60 | 1016.3 |
| 20260902011517 | 67 | 245 | 7.8 | 13.0 | 0.00 | 0.00 | 0.00 | 59 | 1016.3 |
| 20260902010027 | 67 | 285 | 7.0 | 16.5 | 0.00 | 0.00 | 0.00 | 59 | 1016.2 |
| 20260902004525 | 67 | 252 | 6.1 | 12.2 | 0.00 | 0.00 | 0.00 | 59 | 1016.3 |
| 20260902003017 | 67 | 288 | 6.1 | 13.9 | 0.00 | 0.00 | 0.00 | 58 | 1016.1 |
| 20260902001514 | 68 | 284 | 7.0 | 14.8 | 0.00 | 0.00 | 0.00 | 57 | 1016.2 |
| 20260902000024 | 68 | 265 | 6.1 | 14.8 | 0.00 | 0.00 | 0.00 | 57 | 1016.3 |
| 20260901234506 | 68 | 266 | 7.0 | 16.5 | 0.00 | 0.00 | 0.00 | 55 | 1016.3 |
| 20260901233016 | 70 | 282 | 5.2 | 13.0 | 0.00 | 0.00 | 0.00 | 54 | 1016.2 |
| 20260901231538 | 69 | 239 | 3.5 | 13.9 | 0.00 | 0.00 | 0.00 | 54 | 1016.3 |
| 20260901230050 | 71 | 245 | 2.6 | 13.0 | 0.00 | 0.00 | 0.00 | 52 | 1016.3 |
| 20260901224601 | 70 | 250 | 7.8 | 13.0 | 0.00 | 0.00 | 0.00 | 52 | 1016.3 |
| 20260901223001 | 71 | 277 | 7.0 | 12.2 | 0.00 | 0.00 | 0.00 | 51 | 1016.4 |
| 20260901221617 | 72 | 273 | 3.5 | 9.6 | 0.00 | 0.00 | 0.00 | 50 | 1016.5 |
| 20260901220044 | 71 | 259 | 4.3 | 15.6 | 0.00 | 0.00 | 0.00 | 51 | 1016.6 |
| 20260901214546 | 69 | 244 | 4.3 | 11.3 | 0.00 | 0.00 | 0.00 | 53 | 1016.8 |
| 20260901213105 | 69 | 360 | 1.7 | 9.6 | 0.00 | 0.00 | 0.00 | 54 | 1016.8 |
| 20260901211552 | 69 | 264 | 6.1 | 12.2 | 0.00 | 0.00 | 0.00 | 55 | 1016.9 |
| 20260901210016 | 68 | 360 | 3.5 | 12.2 | 0.00 | 0.00 | 0.00 | 58 | 1016.9 |
| 20260901204528 | 69 | 360 | 5.2 | 13.9 | 0.00 | 0.00 | 0.00 | 56 | 1017.0 |
| 20260901203041 | 70 | 360 | 2.6 | 10.4 | 0.00 | 0.00 | 0.00 | 54 | 1016.9 |
| 20260901201533 | 70 | 360 | 6.1 | 13.9 | 0.00 | 0.00 | 0.00 | 55 | 1017.0 |
| 20260901200043 | 69 | 240 | 3.5 | 11.3 | 0.00 | 0.00 | 0.00 | 54 | 1017.0 |
| 20260901194534 | 69 | 258 | 4.3 | 8.7 | 0.00 | 0.00 | 0.00 | 54 | 1017.1 |
| 20260901193051 | 69 | 285 | 2.6 | 9.6 | 0.00 | 0.00 | 0.00 | 54 | 1017.0 |
| 20260901191538 | 68 | 360 | 4.3 | 12.2 | 0.00 | 0.00 | 0.00 | 54 | 1017.2 |
| 20260901190047 | 69 | 360 | 2.6 | 10.4 | 0.00 | 0.00 | 0.00 | 54 | 1017.2 |
| 20260901184547 | 69 | 238 | 1.7 | 10.4 | 0.00 | 0.00 | 0.00 | 53 | 1017.2 |
| 20260901183040 | 69 | 343 | 2.6 | 11.3 | 0.00 | 0.00 | 0.00 | 55 | 1017.1 |
| 20260901181540 | 67 | 244 | 5.2 | 12.2 | 0.00 | 0.00 | 0.00 | 57 | 1017.1 |
| 20260901180042 | 67 | 244 | 6.1 | 13.0 | 0.00 | 0.00 | 0.00 | 59 | 1017.2 |
| 20260901174542 | 67 | 281 | 7.0 | 12.2 | 0.00 | 0.00 | 0.00 | 58 | 1016.9 |
| 20260901173053 | 65 | 275 | 5.2 | 13.9 | 0.00 | 0.00 | 0.00 | 62 | 1016.8 |
| 20260901171500 | 65 | 269 | 2.6 | 9.6 | 0.00 | 0.00 | 0.00 | 65 | 1017.0 |
| 20260901170010 | 65 | 259 | 2.6 | 9.6 | 0.00 | 0.00 | 0.00 | 64 | 1016.6 |
| 20260901164522 | 65 | 271 | 5.2 | 11.3 | 0.00 | 0.00 | 0.00 | 65 | 1016.7 |
| 20260901163023 | 65 | 254 | 7.8 | 12.2 | 0.00 | 0.00 | 0.00 | 64 | 1016.7 |
| 20260901161528 | 64 | 272 | 7.0 | 12.2 | 0.00 | 0.00 | 0.00 | 67 | 1016.7 |
| 20260901160033 | 64 | 267 | 1.7 | 7.8 | 0.00 | 0.00 | 0.00 | 69 | 1016.5 |
| 20260901154527 | 64 | 360 | 4.3 | 8.7 | 0.00 | 0.00 | 0.00 | 70 | 1016.2 |
| 20260901153021 | 63 | 360 | 6.1 | 11.3 | 0.00 | 0.00 | 0.00 | 69 | 1016.4 |
| 20260901151519 | 63 | 360 | 2.6 | 8.7 | 0.00 | 0.00 | 0.00 | 72 | 1016.1 |
| 20260901150031 | 62 | 360 | 1.7 | 7.8 | 0.00 | 0.00 | 0.00 | 74 | 1016.0 |
| 20260901144541 | 62 | 360 | 1.7 | 7.8 | 0.00 | 0.00 | 0.00 | 75 | 1015.8 |
| 20260901143054 | 61 | 360 | 0.9 | 5.2 | 0.00 | 0.00 | 0.00 | 74 | 1015.7 |
| 20260901141501 | 61 | 360 | 0.0 | 2.6 | 0.00 | 0.00 | 0.00 | 74 | 1015.4 |
| 20260901140054 | 61 | 360 | 0.0 | 3.5 | 0.00 | 0.00 | 0.00 | 74 | 1015.2 |
| 20260901134601 | 61 | 360 | 0.0 | 3.5 | 0.00 | 0.00 | 0.00 | 73 | 1015.1 |
| 20260901133055 | 61 | 360 | 0.0 | 7.8 | 0.00 | 0.00 | 0.00 | 73 | 1015.0 |
| 20260901131515 | 61 | 360 | 0.9 | 2.6 | 0.00 | 0.00 | 0.00 | 75 | 1014.8 |
| 20260901130017 | 61 | 360 | 0.0 | 4.3 | 0.00 | 0.00 | 0.00 | 74 | 1014.6 |
| 20260901124528 | 60 | 360 | 1.7 | 4.3 | 0.00 | 0.00 | 0.00 | 75 | 1014.5 |
| 20260901123029 | 60 | 360 | 0.9 | 3.5 | 0.00 | 0.00 | 0.00 | 77 | 1014.5 |
| 20260901121535 | 61 | 360 | 2.6 | 7.0 | 0.00 | 0.00 | 0.00 | 77 | 1014.4 |
| 20260901120041 | 61 | 360 | 0.0 | 2.6 | 0.00 | 0.00 | 0.00 | 78 | 1014.3 |
| 20260901114534 | 61 | 360 | 0.9 | 4.3 | 0.00 | 0.00 | 0.00 | 77 | 1014.4 |
| 20260901113035 | 61 | 360 | 0.9 | 7.0 | 0.00 | 0.00 | 0.00 | 77 | 1014.5 |
| 20260901111537 | 61 | 360 | 1.7 | 4.3 | 0.00 | 0.00 | 0.00 | 76 | 1014.6 |
| 20260901110037 | 61 | 360 | 1.7 | 7.0 | 0.00 | 0.00 | 0.00 | 76 | 1014.5 |
| 20260901104532 | 61 | 360 | 2.6 | 11.3 | 0.00 | 0.00 | 0.00 | 76 | 1014.4 |
| 20260901103032 | 61 | 360 | 3.5 | 11.3 | 0.00 | 0.00 | 0.00 | 76 | 1014.3 |
| 20260901101542 | 61 | 360 | 2.6 | 7.0 | 0.00 | 0.00 | 0.00 | 76 | 1014.2 |
| 20260901100054 | 61 | 360 | 3.5 | 9.6 | 0.00 | 0.00 | 0.00 | 74 | 1014.1 |
| 20260901094510 | 61 | 360 | 1.7 | 7.8 | 0.00 | 0.00 | 0.00 | 73 | 1014.3 |
| 20260901093014 | 61 | 360 | 0.0 | 5.2 | 0.00 | 0.00 | 0.00 | 73 | 1014.5 |
| 20260901091506 | 61 | 360 | 1.7 | 8.7 | 0.00 | 0.00 | 0.00 | 73 | 1014.5 |
| 20260901090009 | 61 | 360 | 3.5 | 7.8 | 0.00 | 0.00 | 0.00 | 74 | 1014.5 |
| 20260901084507 | 61 | 360 | 0.9 | 7.8 | 0.00 | 0.00 | 0.00 | 75 | 1014.3 |
| 20260901083020 | 61 | 360 | 5.2 | 11.3 | 0.00 | 0.00 | 0.00 | 75 | 1014.5 |
| 20260901081508 | 61 | 360 | 4.3 | 10.4 | 0.00 | 0.00 | 0.00 | 75 | 1014.4 |
| 20260901074510 | 61 | 360 | 1.7 | 10.4 | 0.00 | 0.00 | 0.00 | 74 | 1014.1 |
| 20260901073022 | 60 | 360 | 2.6 | 11.3 | 0.00 | 0.00 | 0.00 | 74 | 1014.2 |
| 20260901071529 | 61 | 360 | 1.7 | 11.3 | 0.00 | 0.00 | 0.00 | 74 | 1014.1 |
| 20260901070040 | 61 | 360 | 2.6 | 9.6 | 0.00 | 0.00 | 0.00 | 74 | 1014.1 |
| 20260901064549 | 61 | 360 | 1.7 | 7.0 | 0.00 | 0.00 | 0.00 | 73 | 1014.2 |
| 20260901063051 | 60 | 360 | 2.6 | 7.0 | 0.00 | 0.00 | 0.00 | 73 | 1014.4 |
| 20260901061544 | 60 | 360 | 1.7 | 5.2 | 0.00 | 0.00 | 0.00 | 73 | 1014.3 |
| 20260901060037 | 60 | 360 | 0.0 | 4.3 | 0.00 | 0.00 | 0.00 | 73 | 1014.4 |
| 20260901054545 | 60 | 360 | 2.6 | 7.8 | 0.00 | 0.00 | 0.00 | 73 | 1014.5 |
| 20260901053046 | 60 | 360 | 2.6 | 10.4 | 0.00 | 0.00 | 0.00 | 74 | 1014.6 |
| 20260901051547 | 60 | 360 | 3.5 | 7.0 | 0.00 | 0.00 | 0.00 | 74 | 1014.5 |
| 20260901050048 | 60 | 360 | 2.6 | 8.7 | 0.00 | 0.00 | 0.00 | 74 | 1014.5 |
| 20260901044550 | 60 | 360 | 4.3 | 9.6 | 0.00 | 0.00 | 0.00 | 73 | 1014.3 |